TimeCDT,TemperatureF,Dew PointF,Humidity,Sea Level PressureIn,VisibilityMPH,Wind Direction,Wind SpeedMPH,Gust SpeedMPH,PrecipitationIn,Events,Conditions,WindDirDegrees,DateUTC
12:53 AM,57.9,39.0,49,29.94,10.0,SE,8.1,-,N/A,,Clear,140,2012-10-19 05:53:00
1:53 AM,59.0,39.0,48,29.93,10.0,SE,12.7,19.6,N/A,,Clear,140,2012-10-19 06:53:00
2:53 AM,60.1,37.9,44,29.91,10.0,SE,12.7,-,N/A,,Clear,140,2012-10-19 07:53:00
3:53 AM,59.0,39.0,48,29.89,10.0,SSE,13.8,21.9,N/A,,Clear,150,2012-10-19 08:53:00
4:53 AM,59.0,39.0,48,29.88,10.0,SSE,12.7,-,N/A,,Clear,160,2012-10-19 09:53:00
5:53 AM,57.9,39.0,49,29.90,10.0,South,10.4,-,N/A,,Clear,180,2012-10-19 10:53:00
6:53 AM,55.9,39.0,53,29.91,10.0,SSE,8.1,-,N/A,,Clear,160,2012-10-19 11:53:00
7:53 AM,52.0,39.0,61,29.95,10.0,SSW,5.8,-,N/A,,Clear,200,2012-10-19 12:53:00
8:53 AM,55.9,41.0,57,29.95,10.0,South,9.2,-,N/A,,Clear,180,2012-10-19 13:53:00
9:53 AM,62.1,41.0,46,29.97,10.0,South,8.1,-,N/A,,Clear,180,2012-10-19 14:53:00
10:53 AM,68.0,43.0,40,29.98,10.0,South,5.8,-,N/A,,Clear,190,2012-10-19 15:53:00
11:53 AM,71.1,42.1,35,29.97,10.0,SSW,3.5,-,N/A,,Clear,210,2012-10-19 16:53:00
12:53 PM,73.9,44.1,34,29.94,10.0,Calm,Calm,-,N/A,,Clear,0,2012-10-19 17:53:00
1:53 PM,78.1,41.0,27,29.90,10.0,NNW,3.5,-,N/A,,Clear,340,2012-10-19 18:53:00
2:53 PM,81.0,37.0,21,29.86,10.0,North,4.6,-,N/A,,Clear,350,2012-10-19 19:53:00
3:53 PM,82.0,37.0,20,29.83,10.0,Calm,Calm,-,N/A,,Clear,0,2012-10-19 20:53:00
4:53 PM,82.9,33.1,17,29.82,10.0,Calm,Calm,-,N/A,,Clear,0,2012-10-19 21:53:00
5:53 PM,84.0,32.0,15,29.81,10.0,ENE,3.5,-,N/A,,Clear,70,2012-10-19 22:53:00
6:53 PM,78.1,46.0,32,29.81,10.0,ESE,5.8,-,N/A,,Clear,120,2012-10-19 23:53:00
7:53 PM,73.9,46.0,37,29.82,10.0,South,8.1,-,N/A,,Clear,170,2012-10-20 00:53:00
8:53 PM,71.1,45.0,39,29.83,10.0,SSE,11.5,-,N/A,,Clear,160,2012-10-20 01:53:00
9:53 PM,71.1,46.0,41,29.82,10.0,South,13.8,-,N/A,,Clear,170,2012-10-20 02:53:00
10:53 PM,68.0,46.0,45,29.82,10.0,South,12.7,-,N/A,,Clear,170,2012-10-20 03:53:00
11:53 PM,64.9,46.9,52,29.81,10.0,South,11.5,-,N/A,,Clear,170,2012-10-20 04:53:00